Starlink 4377

operational
NORAD ID: 53221 Int'l Des: 2022-084 Owner: SPXS Country: US Constellation: starlink
LEOCIRCULARRETROGRADESSO

About Starlink 4377

Description loading...

Live Position

Loading 3D Globe...

Upcoming Passes

Altitude History

Altitude vs Time

uPlot chart will show altitude changes over time

Two-Line Element Set

1 53221U 22084AJ 26102.51894034 .00000389 00000-0 31185-4 0 9996
2 53221 97.6045 163.4874 0000744 96.4645 263.6666 15.05648490204405
Epoch: Apr 12, 2026 • Age: 5 hours

Current Status

Altitude 563.8 km
Velocity 7.58 km/s
Sub-Earth Point -36.59°S, 72.28°E
Launch Date Jul 22, 2022
Age 3.7 years
Type internet

Technical Details

Classification Payload
Mass 297.00 kg
Dry Mass 275.00 kg
Total Mass 297.00 kg
Length 0.20 m
Diameter 2.80 m
Span 9.00 m
Shape Box + pan
Manufacturer SPXS
Bus Type Starlink
Phase Status In Orbit
Owner/State SPXS/US

Large Constellations

Loading constellations...